Location: ?astrovice
(49.6513°N, 14.9287°E)
Time: 08:35:19
(UTC+00:00)

MOS 1 Rocket - Pass Details

Date: 09 April 2020
Orbit: 614 x 830 km, 97.4° (Epoch: 01 June)

Event Time Altitude Azimuth Distance (km) Brightness Sun altitude
Rises 19:14:03 0° 14° (NNE) 3,344 7.0 -14.1°
Reaches altitude 10° 19:16:24 10° 16° (NNE) 2,425 6.3 -14.5°
Maximum altitude 19:21:50 74° 102° (ESE) 867 3.6 -15.2°
Drops below altitude 10° 19:27:16 10° 187° (S) 2,428 5.8 -15.9°
Sets 19:29:37 0° 189° (S) 3,348 6.6 -16.3°
